Time,TemperatureF,DewpointF,PressureIn,WindDirection,WindDirectionDegrees,WindSpeedMPH,WindSpeedGustMPH,Humidity,HourlyPrecipIn,Conditions,Clouds,dailyrainin,SoftwareType,DateUTC
2013-10-19 00:00:00,40.4,40.0,30.14,NW,311,0.0,-999.0,99,-99.99,,,0.00,weatherlink.com 1.10,2013-10-19 07:00:00,
2013-10-19 00:15:00,40.5,40.0,30.13,NW,311,2.0,-999.0,98,-99.99,,,0.00,weatherlink.com 1.10,2013-10-19 07:15:00,
2013-10-19 00:30:00,40.3,40.0,30.14,NW,311,0.0,-999.0,98,-99.99,,,0.00,weatherlink.com 1.10,2013-10-19 07:30:00,
2013-10-19 00:45:00,40.8,41.0,30.13,NW,311,0.0,-999.0,99,-99.99,,,0.00,weatherlink.com 1.10,2013-10-19 07:45:00,
2013-10-19 01:00:00,40.6,40.0,30.14,NW,311,0.0,-999.0,98,-99.99,,,0.00,weatherlink.com 1.10,2013-10-19 08:00:00,
2013-10-19 01:15:00,40.4,40.0,30.14,NW,311,2.0,-999.0,98,-99.99,,,0.00,weatherlink.com 1.10,2013-10-19 08:15:00,
2013-10-19 01:30:00,39.7,39.0,30.14,NW,311,0.0,-999.0,98,-99.99,,,0.00,weatherlink.com 1.10,2013-10-19 08:30:00,
2013-10-19 01:45:00,38.9,38.0,30.13,NW,311,4.0,-999.0,98,-99.99,,,0.00,weatherlink.com 1.10,2013-10-19 08:45:00,
2013-10-19 02:00:00,38.2,38.0,30.14,WNW,294,0.0,-999.0,98,-99.99,,,0.00,weatherlink.com 1.10,2013-10-19 09:00:00,
2013-10-19 02:15:00,38.1,38.0,30.14,WNW,294,0.0,-999.0,98,-99.99,,,0.00,weatherlink.com 1.10,2013-10-19 09:15:00,
2013-10-19 02:30:00,39.1,39.0,30.13,WNW,294,0.0,-999.0,99,-99.99,,,0.00,weatherlink.com 1.10,2013-10-19 09:30:00,
2013-10-19 02:45:00,39.9,40.0,30.13,WNW,294,0.0,-999.0,99,-99.99,,,0.00,weatherlink.com 1.10,2013-10-19 09:45:00,
2013-10-19 03:00:00,40.0,40.0,30.13,WNW,294,1.0,-999.0,99,-99.99,,,0.00,weatherlink.com 1.10,2013-10-19 10:00:00,
2013-10-19 03:15:00,39.3,39.0,30.13,WNW,294,0.0,-999.0,99,-99.99,,,0.00,weatherlink.com 1.10,2013-10-19 10:15:00,
2013-10-19 03:30:00,40.1,40.0,30.13,WNW,294,0.0,-999.0,99,-99.99,,,0.00,weatherlink.com 1.10,2013-10-19 10:30:00,
2013-10-19 03:46:00,39.3,39.0,30.13,WNW,294,0.0,-999.0,98,-99.99,,,0.00,weatherlink.com 1.10,2013-10-19 10:46:00,
2013-10-19 04:01:00,39.6,39.0,30.13,WNW,294,0.0,-999.0,99,-99.99,,,0.00,weatherlink.com 1.10,2013-10-19 11:01:00,
2013-10-19 04:16:00,39.5,39.0,30.14,WNW,294,3.0,-999.0,99,-99.99,,,0.00,weatherlink.com 1.10,2013-10-19 11:16:00,
2013-10-19 04:37:00,39.4,39.0,30.13,WNW,292,3.0,-999.0,99,-99.99,,,0.00,weatherlink.com 1.10,2013-10-19 11:37:00,
2013-10-19 04:45:00,39.5,39.0,30.13,West,278,0.0,-999.0,99,-99.99,,,0.00,weatherlink.com 1.10,2013-10-19 11:45:00,
2013-10-19 05:00:00,39.9,40.0,30.13,West,278,1.0,-999.0,99,-99.99,,,0.00,weatherlink.com 1.10,2013-10-19 12:00:00,
2013-10-19 05:15:00,40.0,40.0,30.13,West,278,2.0,-999.0,99,-99.99,,,0.00,weatherlink.com 1.10,2013-10-19 12:15:00,
2013-10-19 05:30:00,39.8,40.0,30.13,West,278,1.0,-999.0,99,-99.99,,,0.00,weatherlink.com 1.10,2013-10-19 12:30:00,
2013-10-19 05:45:00,39.9,40.0,30.12,West,265,2.0,-999.0,99,-99.99,,,0.00,weatherlink.com 1.10,2013-10-19 12:45:00,
2013-10-19 06:00:00,39.8,40.0,30.13,West,265,0.0,-999.0,99,-99.99,,,0.00,weatherlink.com 1.10,2013-10-19 13:00:00,
2013-10-19 06:15:00,40.1,40.0,30.12,West,265,0.0,-999.0,99,-99.99,,,0.00,weatherlink.com 1.10,2013-10-19 13:15:00,
2013-10-19 06:30:00,40.2,40.0,30.13,West,265,0.0,-999.0,99,-99.99,,,0.00,weatherlink.com 1.10,2013-10-19 13:30:00,
2013-10-19 06:45:00,40.5,40.0,30.13,West,265,0.0,-999.0,99,-99.99,,,0.00,weatherlink.com 1.10,2013-10-19 13:45:00,
2013-10-19 07:00:00,40.4,40.0,30.13,West,265,0.0,-999.0,99,-99.99,,,0.00,weatherlink.com 1.10,2013-10-19 14:00:00,
2013-10-19 07:15:00,40.6,40.0,30.13,West,265,0.0,-999.0,99,-99.99,,,0.00,weatherlink.com 1.10,2013-10-19 14:15:00,
2013-10-19 07:30:00,41.1,41.0,30.13,West,265,0.0,-999.0,99,-99.99,,,0.00,weatherlink.com 1.10,2013-10-19 14:30:00,
2013-10-19 07:45:00,41.1,41.0,30.13,West,265,2.0,-999.0,99,-99.99,,,0.00,weatherlink.com 1.10,2013-10-19 14:45:00,
2013-10-19 08:00:00,40.8,41.0,30.14,West,265,0.0,-999.0,99,-99.99,,,0.00,weatherlink.com 1.10,2013-10-19 15:00:00,
2013-10-19 08:15:00,40.8,41.0,30.14,West,265,0.0,-999.0,99,-99.99,,,0.00,weatherlink.com 1.10,2013-10-19 15:15:00,
2013-10-19 08:30:00,41.1,41.0,30.14,WSW,248,0.0,-999.0,99,-99.99,,,0.00,weatherlink.com 1.10,2013-10-19 15:30:00,
2013-10-19 08:46:00,41.7,42.0,30.15,WSW,245,0.0,-999.0,99,-99.99,,,0.00,weatherlink.com 1.10,2013-10-19 15:46:00,
2013-10-19 09:01:00,42.2,42.0,30.15,WSW,244,0.0,-999.0,99,-99.99,,,0.00,weatherlink.com 1.10,2013-10-19 16:01:00,
2013-10-19 09:16:00,42.3,42.0,30.15,South,186,0.0,-999.0,99,-99.99,,,0.00,weatherlink.com 1.10,2013-10-19 16:16:00,
2013-10-19 09:31:00,42.6,42.0,30.15,South,184,0.0,-999.0,99,-99.99,,,0.00,weatherlink.com 1.10,2013-10-19 16:31:00,
2013-10-19 09:46:00,42.8,43.0,30.15,South,175,2.0,-999.0,99,-99.99,,,0.00,weatherlink.com 1.10,2013-10-19 16:46:00,
2013-10-19 10:01:00,43.8,44.0,30.16,South,173,0.0,-999.0,100,-99.99,,,0.00,weatherlink.com 1.10,2013-10-19 17:01:00,
2013-10-19 10:16:00,44.3,44.0,30.16,ESE,105,2.0,-999.0,100,-99.99,,,0.00,weatherlink.com 1.10,2013-10-19 17:16:00,
2013-10-19 10:37:00,44.6,44.0,30.16,ESE,107,0.0,-999.0,99,-99.99,,,0.00,weatherlink.com 1.10,2013-10-19 17:37:00,
2013-10-19 10:45:00,44.9,45.0,30.17,SSE,167,0.0,-999.0,99,-99.99,,,0.00,weatherlink.com 1.10,2013-10-19 17:45:00,
2013-10-19 11:00:00,45.4,45.0,30.16,SSE,163,2.0,-999.0,99,-99.99,,,0.00,weatherlink.com 1.10,2013-10-19 18:00:00,
2013-10-19 11:16:00,46.0,46.0,30.15,SSE,163,3.0,-999.0,99,-99.99,,,0.00,weatherlink.com 1.10,2013-10-19 18:16:00,
2013-10-19 11:31:00,46.4,46.0,30.15,SE,144,2.0,-999.0,99,-99.99,,,0.00,weatherlink.com 1.10,2013-10-19 18:31:00,
2013-10-19 11:45:00,47.0,47.0,30.15,ESE,117,2.0,-999.0,99,-99.99,,,0.00,weatherlink.com 1.10,2013-10-19 18:45:00,
2013-10-19 12:00:00,47.7,48.0,30.15,ESE,107,0.0,-999.0,99,-99.99,,,0.00,weatherlink.com 1.10,2013-10-19 19:00:00,
2013-10-19 12:16:00,47.7,47.0,30.15,East,93,4.0,-999.0,98,-99.99,,,0.00,weatherlink.com 1.10,2013-10-19 19:16:00,
2013-10-19 12:31:00,47.6,47.0,30.15,ENE,71,6.0,-999.0,98,-99.99,,,0.00,weatherlink.com 1.10,2013-10-19 19:31:00,
2013-10-19 12:46:00,47.7,47.0,30.14,East,81,5.0,-999.0,98,-99.99,,,0.00,weatherlink.com 1.10,2013-10-19 19:46:00,
2013-10-19 13:01:00,47.9,47.0,30.14,East,84,5.0,-999.0,98,-99.99,,,0.00,weatherlink.com 1.10,2013-10-19 20:01:00,
2013-10-19 13:16:00,48.7,49.0,30.14,ESE,113,3.0,-999.0,99,-99.99,,,0.00,weatherlink.com 1.10,2013-10-19 20:16:00,
2013-10-19 13:31:00,49.2,49.0,30.14,SSE,165,4.0,-999.0,98,-99.99,,,0.00,weatherlink.com 1.10,2013-10-19 20:31:00,
2013-10-19 13:46:00,49.6,49.0,30.14,ESE,115,3.0,-999.0,97,-99.99,,,0.00,weatherlink.com 1.10,2013-10-19 20:46:00,
2013-10-19 14:01:00,50.2,49.0,30.14,ESE,107,3.0,-999.0,96,-99.99,,,0.00,weatherlink.com 1.10,2013-10-19 21:01:00,
2013-10-19 14:16:00,48.7,47.0,30.14,ENE,58,11.0,-999.0,95,-99.99,,,0.00,weatherlink.com 1.10,2013-10-19 21:16:00,
2013-10-19 14:31:00,47.9,47.0,30.14,ENE,65,9.0,-999.0,97,-99.99,,,0.00,weatherlink.com 1.10,2013-10-19 21:31:00,
2013-10-19 14:46:00,47.9,47.0,30.14,ESE,108,6.0,-999.0,97,-99.99,,,0.00,weatherlink.com 1.10,2013-10-19 21:46:00,
2013-10-19 15:01:00,48.1,48.0,30.14,East,84,7.0,-999.0,98,-99.99,,,0.00,weatherlink.com 1.10,2013-10-19 22:01:00,
2013-10-19 15:16:00,48.2,47.0,30.13,ENE,63,9.0,-999.0,97,-99.99,,,0.00,weatherlink.com 1.10,2013-10-19 22:16:00,
2013-10-19 15:31:00,48.1,47.0,30.13,ENE,59,9.0,-999.0,97,-99.99,,,0.00,weatherlink.com 1.10,2013-10-19 22:31:00,
2013-10-19 15:46:00,48.0,47.0,30.13,ENE,70,9.0,-999.0,97,-99.99,,,0.00,weatherlink.com 1.10,2013-10-19 22:46:00,
2013-10-19 16:01:00,48.0,47.0,30.13,ENE,59,6.0,-999.0,97,-99.99,,,0.00,weatherlink.com 1.10,2013-10-19 23:01:00,
2013-10-19 16:16:00,48.1,47.0,30.13,East,91,6.0,-999.0,97,-99.99,,,0.00,weatherlink.com 1.10,2013-10-19 23:16:00,
2013-10-19 16:31:00,48.1,47.0,30.13,ENE,67,6.0,-999.0,97,-99.99,,,0.00,weatherlink.com 1.10,2013-10-19 23:31:00,
2013-10-19 16:46:00,48.1,47.0,30.13,ENE,64,5.0,-999.0,97,-99.99,,,0.00,weatherlink.com 1.10,2013-10-19 23:46:00,
2013-10-19 17:01:00,47.9,47.0,30.13,ENE,75,4.0,-999.0,97,-99.99,,,0.00,weatherlink.com 1.10,2013-10-20 00:01:00,
2013-10-19 17:16:00,48.0,47.0,30.13,ENE,67,2.0,-999.0,97,-99.99,,,0.00,weatherlink.com 1.10,2013-10-20 00:16:00,
2013-10-19 17:31:00,48.1,47.0,30.13,South,188,5.0,-999.0,97,-99.99,,,0.00,weatherlink.com 1.10,2013-10-20 00:31:00,
2013-10-19 17:46:00,47.8,47.0,30.12,ESE,103,1.0,-999.0,97,-99.99,,,0.00,weatherlink.com 1.10,2013-10-20 00:46:00,
2013-10-19 18:01:00,47.8,47.0,30.13,East,97,0.0,-999.0,97,-99.99,,,0.00,weatherlink.com 1.10,2013-10-20 01:01:00,
2013-10-19 18:16:00,47.6,47.0,30.13,East,101,4.0,-999.0,97,-99.99,,,0.00,weatherlink.com 1.10,2013-10-20 01:16:00,
2013-10-19 18:31:00,47.4,47.0,30.13,East,96,3.0,-999.0,98,-99.99,,,0.00,weatherlink.com 1.10,2013-10-20 01:31:00,
2013-10-19 18:46:00,47.2,47.0,30.13,ESE,110,0.0,-999.0,98,-99.99,,,0.00,weatherlink.com 1.10,2013-10-20 01:46:00,
2013-10-19 19:01:00,47.1,47.0,30.14,ESE,123,0.0,-999.0,98,-99.99,,,0.00,weatherlink.com 1.10,2013-10-20 02:01:00,
2013-10-19 19:16:00,46.9,46.0,30.14,ESE,107,2.0,-999.0,98,-99.99,,,0.00,weatherlink.com 1.10,2013-10-20 02:16:00,
2013-10-19 19:31:00,46.7,46.0,30.14,East,81,2.0,-999.0,98,-99.99,,,0.00,weatherlink.com 1.10,2013-10-20 02:31:00,
2013-10-19 19:46:00,46.6,46.0,30.14,East,99,0.0,-999.0,98,-99.99,,,0.00,weatherlink.com 1.10,2013-10-20 02:46:00,
2013-10-19 20:01:00,46.6,46.0,30.14,ESE,117,3.0,-999.0,98,-99.99,,,0.00,weatherlink.com 1.10,2013-10-20 03:01:00,
2013-10-19 20:16:00,46.5,46.0,30.14,SSE,148,0.0,-999.0,98,-99.99,,,0.00,weatherlink.com 1.10,2013-10-20 03:16:00,
2013-10-19 20:31:00,46.6,46.0,30.15,East,96,2.0,-999.0,99,-99.99,,,0.00,weatherlink.com 1.10,2013-10-20 03:31:00,
2013-10-19 20:46:00,46.6,46.0,30.15,ESE,116,4.0,-999.0,98,-99.99,,,0.00,weatherlink.com 1.10,2013-10-20 03:46:00,
2013-10-19 21:01:00,46.5,46.0,30.15,SSE,153,3.0,-999.0,98,-99.99,,,0.00,weatherlink.com 1.10,2013-10-20 04:01:00,
2013-10-19 21:16:00,46.5,46.0,30.15,SE,130,2.0,-999.0,98,-99.99,,,0.00,weatherlink.com 1.10,2013-10-20 04:16:00,
2013-10-19 21:31:00,46.4,46.0,30.15,SSE,159,2.0,-999.0,98,-99.99,,,0.00,weatherlink.com 1.10,2013-10-20 04:31:00,
2013-10-19 21:46:00,46.4,46.0,30.15,SSE,155,2.0,-999.0,98,-99.99,,,0.00,weatherlink.com 1.10,2013-10-20 04:46:00,
2013-10-19 22:01:00,46.5,46.0,30.15,ESE,105,2.0,-999.0,98,-99.99,,,0.00,weatherlink.com 1.10,2013-10-20 05:01:00,
2013-10-19 22:16:00,46.3,46.0,30.16,SE,125,4.0,-999.0,98,-99.99,,,0.00,weatherlink.com 1.10,2013-10-20 05:16:00,
2013-10-19 22:31:00,46.3,46.0,30.15,ESE,123,1.0,-999.0,99,-99.99,,,0.00,weatherlink.com 1.10,2013-10-20 05:31:00,
2013-10-19 22:46:00,46.3,46.0,30.16,SE,131,0.0,-999.0,99,-99.99,,,0.00,weatherlink.com 1.10,2013-10-20 05:46:00,
2013-10-19 23:01:00,46.4,46.0,30.16,East,98,0.0,-999.0,99,-99.99,,,0.00,weatherlink.com 1.10,2013-10-20 06:01:00,
2013-10-19 23:16:00,46.5,46.0,30.17,ESE,113,0.0,-999.0,99,-99.99,,,0.00,weatherlink.com 1.10,2013-10-20 06:16:00,
2013-10-19 23:31:00,46.6,46.0,30.17,ESE,102,0.0,-999.0,99,-99.99,,,0.00,weatherlink.com 1.10,2013-10-20 06:31:00,
2013-10-19 23:46:00,46.5,46.0,30.17,ESE,118,3.0,-999.0,99,-99.99,,,0.00,weatherlink.com 1.10,2013-10-20 06:46:00,